#timestamp,LO_Frequency,Hit,StdDev 
1505628015.6,286047019.5,N
1505628035.4,286047020.4,N
1505628055.2,286047024.1,N
1505628075.1,286047026.6,Y
1505628076.0,286047026.6,P
1505628095.8,286047023.2,N
1505628115.6,286047024.8,N
1505628135.5,286047021.3,N
1505628155.3,286047019.3,N
1505628175.1,286047017.3,N
1505628195.8,286047019.1,N
1505628215.7,286047022.1,Y
1505628235.5,286047004.9,P
1505628255.3,286047005.2,N
1505628275.2,286047009.0,N
1505628295.0,286047004.6,N
1505628295.9,286047004.6,N
1505628315.7,286047007.0,N
1505628335.6,286047007.4,N
1505628355.4,286047006.3,N
1505628375.2,286047004.5,N
1505628395.1,286047009.4,N
1505628396.0,286047009.4,N
1505628415.8,286047010.8,N
1505628435.6,286047006.1,N
1505628455.5,286047008.1,N
1505628475.3,286047007.3,N
1505628495.1,286047006.7,N
1505628515.9,286047006.3,N
1505628535.7,286047009.0,N
1505628555.5,286047009.2,N
1505628575.4,286047010.2,Y
1505628595.2,286047003.9,P
1505628615.0,286047003.7,N
1505628615.9,286047003.7,N
1505628635.8,286047005.6,Y
1505628655.6,286047000.9,P
1505628675.4,286047001.4,N
1505628695.3,286047009.1,P
1505628715.1,286047007.2,N
1505628716.0,286047007.2,N
1505628735.8,286047006.8,N
1505628755.7,286047010.5,Y
1505628775.5,286047002.6,P
1505628795.3,286047004.0,N
1505628815.1,286047007.3,P
1505628835.9,286047007.3,Y
1505628855.7,286047002.2,P
1505628875.5,286047002.6,N
1505628895.4,286046998.6,N
1505628915.2,286047002.0,N
1505628935.0,286047002.5,N
1505628935.9,286047002.5,N
1505628955.8,286046999.3,N
1505628975.6,286047002.4,N
1505628995.4,286046999.7,N
1505629015.3,286047004.0,N
1505629035.1,286047006.4,Y
1505629055.8,286047007.0,P
1505629075.7,286047007.1,N
1505629095.5,286047003.5,N
1505629115.3,286047004.9,N
1505629135.2,286047008.1,Y
1505629155.9,286047003.9,P
1505629175.7,286047005.9,P
1505629195.6,286047003.4,P
1505629215.4,286047001.7,N
1505629235.2,286047003.7,N
1505629255.1,286047004.4,Y
1505629256.0,286047004.4,P
1505629275.8,286046998.9,P
1505629295.6,286046999.5,N
1505629315.5,286046998.4,N
1505629335.3,286046996.5,N
1505629355.1,286046998.5,N
1505629375.9,286047000.0,N
1505629395.7,286047000.0,N
1505629415.5,286047002.8,N
1505629435.3,286047001.2,N
1505629455.2,286046999.2,N
1505629475.0,286047001.6,N
1505629475.9,286047001.6,N
1505629495.7,286047002.0,N
1505629515.6,286046998.1,N
1505629535.4,286047000.1,N
1505629555.2,286047001.1,N
1505629575.1,286047001.6,N
1505629576.0,286047001.6,N
1505629595.8,286047002.0,N
1505629615.6,286047000.2,N
1505629635.5,286047000.2,N
1505629655.3,286046998.2,N
1505629675.1,286046995.4,N
1505629695.9,286046997.7,N
1505629715.7,286046997.7,N
1505629735.5,286046993.7,N
1505629755.3,286046997.3,N
1505629775.2,286046997.8,N
1505629795.0,286046998.1,N
1505629795.9,286046998.1,N
1505629815.7,286046997.3,N
1505629835.6,286047000.5,N
1505629855.4,286047002.0,N
1505629875.2,286047000.1,N
1505629895.1,286047000.5,N
1505629896.0,286047000.5,N
1505629915.8,286046998.9,N
1505629935.6,286047000.7,N
1505629955.5,286047000.2,N
1505629975.3,286046998.5,N
1505629995.1,286046998.4,N
1505630015.9,286046997.0,N
1505630035.7,286046995.0,N
1505630055.5,286046998.4,N
1505630075.3,286047000.5,N
1505630095.2,286047002.1,N
1505630115.0,286047000.6,N
1505630115.9,286047000.6,N
1505630135.7,286046999.7,N
1505630155.6,286046999.1,N
1505630175.4,286046997.4,N
1505630195.2,286046998.6,N
1505630215.1,286046999.9,N
1505630216.0,286046999.9,N
1505630235.8,286046999.4,N
1505630255.6,286046998.6,N
1505630275.5,286047002.1,N
1505630295.3,286046998.1,N
1505630315.1,286047001.4,N
1505630335.9,286046999.6,N
1505630355.7,286046998.7,N
1505630375.5,286047001.8,N
1505630395.4,286047002.4,N
1505630415.2,286047005.8,Y
1505630435.0,286046998.7,P
1505630435.9,286046998.7,N
1505630455.8,286046997.3,P
1505630475.6,286047000.7,N
1505630495.4,286046997.6,N
1505630515.3,286046998.8,N
1505630535.1,286047000.7,N
1505630536.0,286047000.7,N
1505630555.8,286046998.6,N
1505630575.7,286047002.7,N
1505630595.5,286047000.9,N
1505630615.3,286046996.8,N
1505630635.1,286046998.3,N
1505630655.9,286046999.2,N
1505630675.7,286046999.5,N
1505630695.5,286046996.5,N
1505630715.4,286046997.8,N
1505630735.2,286046997.7,N
1505630755.0,286046997.4,N
1505630755.9,286046997.4,N
1505630775.8,286047000.3,N
1505630795.6,286047004.0,N
1505630815.4,286047005.5,N
1505630835.3,286047004.1,N
1505630855.1,286047000.4,N
1505630856.0,286047000.4,N
1505630875.8,286047000.7,N
1505630895.7,286047002.1,N
1505630915.5,286046999.7,N
1505630935.3,286047002.2,N
1505630955.1,286047004.4,N
1505630975.9,286047001.8,N
1505630995.7,286047006.0,N
1505631015.5,286047000.6,N
1505631035.4,286046998.2,N
1505631055.2,286046997.3,N
1505631075.0,286046997.3,N
1505631075.9,286046997.3,N
1505631095.8,286046997.0,N
1505631115.6,286047000.0,N
1505631135.4,286046997.9,N
1505631155.3,286046993.7,N
1505631175.1,286046999.6,N
1505631176.0,286046999.6,N
1505631195.8,286046996.0,N
1505631215.7,286046996.2,N
1505631235.5,286046994.9,N
1505631255.3,286046998.3,N
1505631275.2,286046997.5,N
1505631295.9,286046997.4,N
1505631315.7,286046999.6,N
1505631335.5,286046996.7,N
1505631355.4,286046999.2,N
1505631375.2,286046995.8,N
1505631395.0,286046999.5,N
1505631395.9,286046999.5,N
1505631415.8,286046998.0,N
1505631435.6,286046993.6,N
1505631455.4,286046993.5,N
1505631475.3,286046992.3,N
1505631495.1,286046995.1,N
1505631496.0,286046995.1,N
1505631515.8,286046993.9,N
1505631535.7,286046993.6,N
1505631555.5,286046996.4,N
1505631575.3,286046999.4,N
1505631595.2,286046995.6,N
